Regional Weather Roundup
Issued by NWS

Home | Current Version | Previous Version | Text Only | Print | Product List | Glossary Off
Versions: 1 2 3 4 5 6 7 8 9 10 11 12 13 14 15 16 17 18 19 20 21 22 23 24 25 26 27

000
ASUS45 KTFX 190710
RWRMT
MONTANA REGIONAL WEATHER ROUNDUP
NATIONAL WEATHER SERVICE GREAT FALLS MT
100 AM MDT THU APR 19 2018

NOTE: "FAIR" INDICATES FEW OR NO CLOUDS BELOW 12000 FEET WITH NO
SIGNIFICANT WEATHER AND/OR OBSTRUCTIONS TO VISIBILITY.

MTZ001>007-043-190800-
WEST OF THE DIVIDE

CITY           SKY/WX    TMP DP  RH WIND       PRES   REMARKS
MISSOULA       FAIR      38  25  59 N5        30.10S
BUTTE          CLOUDY    32  22  66 SE3       30.10S
MULLAN PASS    FAIR      31  20  63 SE9       30.08S WCI  23
ANACONDA         N/A     34  21  60 W3        30.10S
DEER LODGE       N/A     36  25  64 W6        30.12S WCI  31
HAMILTON         N/A     41  25  52 MISG      30.09S
RONAN            N/A     36  30  80 CALM      30.13S
$$

MTZ008-052>055-190800-
SOUTHWEST MONTANA

CITY           SKY/WX    TMP DP  RH WIND       PRES   REMARKS
DILLON         FAIR      34  24  67 NE3       30.06F
ENNIS          MOCLDY    32  21  64 NE3       30.12S
W YELLOWSTONE  FAIR      25  19  80 CALM      30.09F
THREE FORKS      N/A     35  26  70 CALM      30.08F
$$

MTZ009-010-012-014-046-048-049-054-190800-
EAST SLOPES AND CENTRAL MONTANA

CITY           SKY/WX    TMP DP  RH WIND       PRES   REMARKS
CUT BANK       FAIR      31  22  69 CALM      30.17S
GREAT FALLS    FAIR      36  25  64 E9        30.13F WCI  29
HELENA         FAIR      37  25  61 W7        30.11S WCI  32
AUGUSTA        FAIR      32  26  76 N10       30.14S WCI  24
BOWMANS CRNR   FAIR      33  25  72 NW8       30.12S WCI  26
CHOTEAU          N/A     30  25  80 NW8       30.17S WCI  23
FAIRFIELD      FAIR      30  24  79 CALM      30.14S
POWER          FAIR      35  24  64 NE7       30.13F WCI  29
RAYNESFORD     MOCLDY    39  24  54 E16       30.15S WCI  30
ULM            MOCLDY    33  24  69 CALM      30.14R
WHITE SULPHUR    N/A     30  23  74 CALM      30.12S
$$

MTZ011-013-016-021-045-047-050-051-190800-
NORTH CENTRAL MONTANA

CITY           SKY/WX    TMP DP  RH WIND       PRES   REMARKS
LEWISTOWN      FAIR      35  23  61 SE8       30.17S WCI  29
N BAR RANCH    FAIR      34  19  55 NW5       30.22S
CHINOOK          N/A     37  34  87 E9        30.25R WCI  31
GEYSER         MOCLDY    31  24  74 CALM      30.16F
GRASS RANGE    FAIR      32  26  77 W5        30.17S
STANFORD       FAIR      33  22  64 CALM      30.16F
$$

MTZ017>020-022>027-061-062-190800-
NORTHEAST MONTANA

CITY           SKY/WX    TMP DP  RH WIND       PRES   REMARKS
GLENDIVE       MOCLDY    34  33  96 NE10      30.31S WCI  26
JORDAN           N/A     37  32  82 E7        30.25S WCI  32
MALTA          CLEAR     41  36  81 NE8       30.26R
SIDNEY         CLOUDY    35  33  92 NE6       30.35R FOG     WCI  30
PLENTYWOOD       N/A     28  28 100 CALM      30.34R VSB 1/4
POPLAR           N/A     34  30  86 E7        30.35R VSB 1/4 WCI  28
SCOBEY           N/A     28  19  69 CALM      30.28R
$$

MTZ028>42-056>058-190800-
SOUTHCENTRAL AND SOUTHEAST MONTANA

CITY           SKY/WX    TMP DP  RH WIND       PRES   REMARKS
BAKER          FAIR      29  28  96 E6        30.29R WCI  23
BILLINGS       MOCLDY    41  23  48 NE6       30.17S
LIVINGSTON     FAIR      37  25  61 SE10      30.12S WCI  30
BIG TIMBER     CLEAR     37  23  56 N7        30.15F
EKALAKA          N/A     37  26  65 SE10      30.22S WCI  30
FORSYTH          N/A     37  34  87 E6        30.24R
HARLOWTON      MOCLDY    34  24  66 CALM      30.17S
LAUREL           N/A     43  23  45 N13       30.16S
ROUNDUP          N/A     39  20  47 CALM      30.09S
$$

REGIONAL REPORTS...DAKOTAS

CITY           SKY/WX    TMP DP  RH WIND       PRES   REMARKS
WILLISTON      CLOUDY    33  32  96 NE7       30.35R FOG     WCI  27
MINOT          CLOUDY    36  33  89 W7        30.34R WCI  30
DICKINSON      FOG       30  29  96 CALM      30.30R VSB 1/4
BEACH          FAIR      30  30 100 SE5       30.33S
CROSBY         FOG       32  32 100 CALM      30.36R VSB 1/4
TIOGA          FOG       32  32 100 CALM      30.36R VSB 3/4
WATFORD CITY   CLOUDY    34  34 100 NE3       30.34R FOG
BISMARCK       FAIR      25  24  96 CALM      30.34R
GRAND FORKS    FAIR      30  29  96 CALM      30.32R
FARGO          FAIR      32  29  88 CALM      30.31R
BUFFALO SD       N/A     36  29  75 NE3       30.23R
RAPID CITY     FAIR      33  31  92 CALM      30.30S
$$

REGIONAL REPORTS...WYOMING/IDAHO/WASHINGTON

CITY           SKY/WX    TMP DP  RH WIND       PRES   REMARKS
GILLETTE       FAIR      33  25  72 S7        30.23R WCI  27
SHERIDAN       FAIR      36  24  62 SE7       30.20S WCI  30
BUFFALO WY     FAIR      39  19  44 S6        30.22S
CODY           FAIR      36  25  64 SW5       30.15F
YELLOWSTONE LA   N/A     20  12  71 CALM      30.15F
IDAHO FALLS    FAIR      36  28  73 N7        30.01F WCI  30
SALMON         FAIR      42  26  53 CALM      30.04S
BOISE          CLOUDY    52  29  41 W7        29.93F
SPOKANE        FAIR      43  30  60 NE6       30.12S
$$

REGIONAL REPORTS...ALBERTA

CITY           SKY/WX    TMP DP  RH WIND       PRES   REMARKS
CALGARY        CLEAR     34  21  60 CALM      30.16R
CARDSTON         N/A     32  25  74 SW2         N/A
EDMONTON       CLEAR     36  19  51 SW7       30.15R WCI  30
FORT MCMURRAY  CLEAR     34  25  69 S3        30.09R
HIGH LEVEL     CLEAR     28  19  69 VRB2      29.90S
LETHBRIDGE     CLEAR     36  27  69 S12G20    30.16S WCI  27
LLOYDMINSTER   CLEAR     32  25  74 S8        30.20R WCI  25
MEDICINE HAT   CLEAR     39  28  65 S6        30.20S
PEACE RIVER    CLEAR     34  19  55 SW6       30.04R WCI  29
PINCHER CREEK  CLEAR     30  25  80 SW6       30.15S WCI  24
WATERTON GATE    N/A     32  23  69 SW7         N/A  WCI  26
$$

REGIONAL REPORTS...SASKATCHEWAN

CITY           SKY/WX    TMP DP  RH WIND       PRES   REMARKS
CORONACH         N/A     27  25  93 NE1         N/A
CYPRESS HILLS    N/A     34  25  69 SE8         N/A  WCI  27
ESTEVAN        FOG       30  30 100 W7        30.35R VSB 1/8 WCI  23
MOOSE JAW        N/A     30  25  80 S9          N/A  WCI  22
PRINCE ALBERT  CLEAR     27  23  86 SE2       30.29R
REGINA         FOG       25  25 100 S3        30.33  VSB 1
ROCKGLEN         N/A     32  27  80 SE8         N/A  WCI  25
SASKATOON      PTCLDY    36  30  80 S13       30.28R WCI  27
SWIFT CURRENT  CLEAR     34  27  75 SE15      30.26R WCI  24
VAL MARIE        N/A     32  27  80 NE5         N/A
$$




USA.gov is the U.S. government's official web portal to all federal, state and local government web resources and services.